Погода в Суходольске

Украина / Луганская область     48°21′13″N   39°43′20″E
темп.,
°C
ветер,
м/с
пор.,
м/с
влажн.,
%
обл.,
%
осадки,
мм/ч
давл.,
гПа
погр.,
м
2 марта, вт
вт223:00−2юв118758 0.0 102821
02:00−2юз228829 0.0 102851
05:00−1зюз47875 0.0 1026228
08:00+1зюз6107847 0.0 1026625
11:00+4з8115773 0.0 10231114
14:00+4зюз8126286 0.0 10201059
17:00+2зюз71372100 0.0 1018770
20:00+2зюз91577100 0.0 1016809
3 марта, ср
ср323:00+1з71396100 0.3 1014812
02:000зсз71296100 1.3 1013654
05:00+1сз71197100 0.9 1014648
08:00+1ссз71079100 1.1 10171041
11:00+1сз8107599 0.1 10191089
14:00+2сз8116399 0.2 10201582
17:00+1сз6116988 0.1 1021660
20:00−1зсз498044 0.1 1023344
4 марта, чт
чт423:00−2з36810 0.0 1023188
02:00−1зюз58790 0.0 1023235
05:00−1зюз611780 0.0 1022321
08:00+1зюз711680 0.0 1022574
11:00+5зюз811520 0.0 10201044
14:00+6зюз913500 0.0 10171224
17:00+4юз715670 0.0 1015539
20:00+2юз1018720 0.0 1015574
5 марта, пт
пт523:00+2юз10197820 0.0 1014573
02:00+2юз10188528 0.0 1013561
05:00+1юз9168691 0.0 1013552
08:00+3юз9148394 0.0 1014534
11:00+5юз9127799 0.0 1014555
14:00+7юз8127398 0.0 1013648
17:00+6юз7137697 0.0 1013673
20:00+4юз8158299 0.0 1013561
6 марта, сб
сб623:00+3юз81689100 0.0 1011503
02:00+4юз91688100 0.0 1011541
05:00+4юз71289100 0.0 1010418
08:00+3сз4795100 0.3 1012364
11:00+1с4691100 0.4 1013438
14:00+1с5694100 1.3 1014429
17:000ссв5784100 0.9 1014733
20:00−1с4873100 1.0 1017513